When you browse on this site, cookies collect data to enhance your experience and personalize the content and advertising you see.
Visit our Privacy Policy to learn more. By continuing to use the site, you agree to this use of cookies and data.
  • In Hungary
  • List of Countries
  • For 7 days
  • Water Temperature
  • Weather Map
  • News
  • Weather Widgets
  • user-avatar
    Login

    Hourly Weather Kolos

    Today, 18 August, Sunday

    Time Temperature Precipitation Wind Pressure Humidity
    00:00 +17°C° 0 mm 2 mps 737 mmHg 97%
    01:00 +18°C° 0 mm 1 mps 737 mmHg 97%
    02:00 +18°C° 0 mm 1 mps 737 mmHg 96%
    03:00 +16°C° 0 mm 2 mps 737 mmHg 97%
    04:00 +16°C° 0 mm 2 mps 737 mmHg 97%
    05:00 +16°C° 0 mm 3 mps 737 mmHg 97%
    06:00 +16°C° 0 mm 3 mps 737 mmHg 95%
    07:00 +16°C° 0 mm 3 mps 737 mmHg 94%
    08:00 +16°C° 0 mm 3 mps 737 mmHg 91%
    09:00 +17°C° 0 mm 3 mps 738 mmHg 89%
    10:00 +17°C° 0 mm 3 mps 738 mmHg 88%
    11:00 +17°C° 0 mm 3 mps 738 mmHg 86%
    12:00 +18°C° 0 mm 3 mps 738 mmHg 85%
    13:00 +18°C° 0 mm 3 mps 739 mmHg 84%
    14:00 +19°C° 0 mm 3 mps 739 mmHg 83%
    15:00 +19°C° 0.1 mm 3 mps 739 mmHg 83%
    16:00 +19°C° 0.1 mm 3 mps 740 mmHg 84%
    17:00 +19°C° 0.1 mm 3 mps 740 mmHg 85%
    18:00 +18°C° 0 mm 3 mps 740 mmHg 89%
    19:00 +17°C° 0 mm 3 mps 741 mmHg 92%
    20:00 +16°C° 0 mm 2 mps 741 mmHg 95%
    21:00 +15°C° 0 mm 2 mps 741 mmHg 96%
    22:00 +15°C° 0 mm 2 mps 741 mmHg 96%
    23:00 +14°C° 0 mm 2 mps 741 mmHg 97%

    Tomorrow, 19 August, Monday

    Time Temperature Precipitation Wind Pressure Humidity
    00:00 +14°C° 0 mm 2 mps 742 mmHg 97%
    01:00 +14°C° 0 mm 2 mps 742 mmHg 97%
    02:00 +13°C° 0 mm 3 mps 742 mmHg 97%
    03:00 +14°C° 0 mm 2 mps 743 mmHg 97%
    04:00 +14°C° 0 mm 2 mps 743 mmHg 97%
    05:00 +13°C° 0 mm 2 mps 743 mmHg 97%
    06:00 +15°C° 0 mm 2 mps 743 mmHg 93%
    07:00 +17°C° 0 mm 2 mps 744 mmHg 88%
    08:00 +18°C° 0 mm 2 mps 744 mmHg 83%
    09:00 +20°C° 0 mm 2 mps 744 mmHg 77%
    10:00 +21°C° 0 mm 3 mps 745 mmHg 71%
    11:00 +24°C° 0 mm 3 mps 745 mmHg 65%
    12:00 +24°C° 0 mm 3 mps 745 mmHg 62%
    13:00 +25°C° 0 mm 3 mps 745 mmHg 60%
    14:00 +26°C° 0 mm 3 mps 745 mmHg 58%
    15:00 +25°C° 0 mm 2 mps 745 mmHg 61%
    16:00 +25°C° 0 mm 2 mps 746 mmHg 64%
    17:00 +25°C° 0 mm 2 mps 746 mmHg 67%
    18:00 +23°C° 0 mm 1 mps 746 mmHg 70%
    19:00 +21°C° 0 mm 1 mps 746 mmHg 73%
    20:00 +19°C° 0 mm 1 mps 746 mmHg 76%
    21:00 +19°C° 0 mm 1 mps 746 mmHg 77%
    22:00 +18°C° 0 mm 1 mps 746 mmHg 79%
    23:00 +18°C° 0 mm 1 mps 746 mmHg 80%

    Day after tomorrow, 20 August, Tuesday

    Time Temperature Precipitation Wind Pressure Humidity
    00:00 +18°C° 0 mm 1 mps 747 mmHg 80%
    01:00 +16°C° 0 mm 1 mps 747 mmHg 80%
    02:00 +16°C° 0 mm 1 mps 747 mmHg 80%
    03:00 +16°C° 0 mm 1 mps 747 mmHg 81%
    04:00 +16°C° 0 mm 1 mps 747 mmHg 81%
    05:00 +16°C° 0 mm 1 mps 747 mmHg 82%
    06:00 +18°C° 0 mm 1 mps 748 mmHg 77%
    07:00 +20°C° 0 mm 1 mps 748 mmHg 72%
    08:00 +22°C° 0 mm 1 mps 748 mmHg 66%
    09:00 +24°C° 0 mm 1 mps 748 mmHg 63%
    10:00 +25°C° 0 mm 1 mps 748 mmHg 59%
    11:00 +26°C° 0 mm 2 mps 748 mmHg 55%
    12:00 +27°C° 0 mm 2 mps 748 mmHg 54%
    13:00 +27°C° 0 mm 2 mps 748 mmHg 52%
    14:00 +28°C° 0 mm 2 mps 748 mmHg 51%
    15:00 +28°C° 0 mm 1 mps 748 mmHg 55%
    16:00 +28°C° 0 mm 1 mps 748 mmHg 59%
    17:00 +27°C° 0 mm 1 mps 748 mmHg 63%
    18:00 +26°C° 0 mm 1 mps 748 mmHg 66%
    19:00 +22°C° 0 mm 0 mps 748 mmHg 69%
    20:00 +20°C° 0 mm 0 mps 748 mmHg 73%
    21:00 +20°C° 0 mm 0 mps 748 mmHg 74%
    22:00 +19°C° 0 mm 0 mps 749 mmHg 76%
    23:00 +19°C° 0 mm 0 mps 749 mmHg 77%

    21 August, Wednesday

    Time Temperature Precipitation Wind Pressure Humidity
    00:00 +18°C° 0 mm 0 mps 749 mmHg 79%
    01:00 +18°C° 0 mm 0 mps 749 mmHg 80%
    02:00 +18°C° 0 mm 0 mps 749 mmHg 82%
    03:00 +18°C° 0 mm 0 mps 749 mmHg 82%
    04:00 +18°C° 0 mm 0 mps 749 mmHg 83%
    05:00 +17°C° 0 mm 0 mps 749 mmHg 84%
    06:00 +19°C° 0 mm 0 mps 749 mmHg 80%
    07:00 +23°C° 0 mm 1 mps 749 mmHg 76%
    08:00 +24°C° 0 mm 1 mps 749 mmHg 71%
    09:00 +25°C° 0 mm 1 mps 749 mmHg 68%
    10:00 +27°C° 0 mm 2 mps 749 mmHg 65%
    11:00 +28°C° 0 mm 2 mps 749 mmHg 62%
    12:00 +28°C° 0 mm 2 mps 749 mmHg 60%
    13:00 +29°C° 0 mm 2 mps 748 mmHg 58%
    14:00 +29°C° 0 mm 3 mps 748 mmHg 56%
    15:00 +29°C° 0 mm 2 mps 748 mmHg 60%
    16:00 +29°C° 0 mm 2 mps 747 mmHg 64%
    17:00 +28°C° 0 mm 2 mps 747 mmHg 67%
    18:00 +27°C° 0 mm 2 mps 747 mmHg 71%
    19:00 +25°C° 0 mm 2 mps 747 mmHg 76%
    20:00 +23°C° 0 mm 2 mps 747 mmHg 80%
    21:00 +23°C° 0 mm 2 mps 747 mmHg 81%
    22:00 +21°C° 0 mm 2 mps 747 mmHg 83%
    23:00 +21°C° 0 mm 2 mps 747 mmHg 85%

    22 August, Thursday

    Time Temperature Precipitation Wind Pressure Humidity
    00:00 +20°C° 0 mm 2 mps 747 mmHg 86%
    01:00 +21°C° 0 mm 1 mps 747 mmHg 87%
    02:00 +20°C° 0 mm 1 mps 747 mmHg 89%
    03:00 +20°C° 0 mm 1 mps 746 mmHg 89%
    04:00 +20°C° 0 mm 1 mps 746 mmHg 89%
    05:00 +20°C° 0 mm 1 mps 746 mmHg 89%
    06:00 +21°C° 0 mm 1 mps 746 mmHg 83%
    07:00 +23°C° 0 mm 1 mps 746 mmHg 77%
    08:00 +24°C° 0 mm 2 mps 746 mmHg 71%
    09:00 +26°C° 0 mm 1 mps 746 mmHg 66%
    10:00 +27°C° 0 mm 1 mps 746 mmHg 61%
    11:00 +28°C° 0 mm 1 mps 746 mmHg 56%
    12:00 +28°C° 0 mm 1 mps 745 mmHg 54%
    13:00 +29°C° 0 mm 1 mps 745 mmHg 51%
    14:00 +29°C° 0 mm 1 mps 745 mmHg 49%
    15:00 +29°C° 0 mm 1 mps 745 mmHg 52%
    16:00 +29°C° 0 mm 1 mps 745 mmHg 56%
    17:00 +29°C° 0 mm 1 mps 745 mmHg 59%
    18:00 +27°C° 0 mm 1 mps 745 mmHg 64%
    19:00 +25°C° 0 mm 1 mps 745 mmHg 69%
    20:00 +23°C° 0 mm 2 mps 745 mmHg 74%
    21:00 +21°C° 0 mm 3 mps 745 mmHg 81%
    22:00 +20°C° 0 mm 3 mps 745 mmHg 87%
    23:00 +19°C° 0 mm 4 mps 746 mmHg 94%

    23 August, Friday

    Time Temperature Precipitation Wind Pressure Humidity
    00:00 +19°C° 0.1 mm 4 mps 746 mmHg 93%
    01:00 +18°C° 0.1 mm 4 mps 746 mmHg 93%
    02:00 +18°C° 0.1 mm 4 mps 746 mmHg 93%
    03:00 +18°C° 0.3 mm 4 mps 746 mmHg 92%
    04:00 +18°C° 0.3 mm 4 mps 746 mmHg 91%
    05:00 +17°C° 0.3 mm 4 mps 745 mmHg 91%
    06:00 +18°C° 0.7 mm 4 mps 746 mmHg 91%
    07:00 +18°C° 0.7 mm 4 mps 746 mmHg 91%
    08:00 +18°C° 0.7 mm 4 mps 746 mmHg 91%
    09:00 +18°C° 0.5 mm 4 mps 746 mmHg 90%
    10:00 +18°C° 0.5 mm 4 mps 746 mmHg 89%
    11:00 +17°C° 0.5 mm 5 mps 746 mmHg 88%
    12:00 +17°C° 0.4 mm 5 mps 746 mmHg 88%
    13:00 +17°C° 0.4 mm 5 mps 746 mmHg 88%
    14:00 +17°C° 0.4 mm 5 mps 746 mmHg 88%
    15:00 +16°C° 0.3 mm 5 mps 745 mmHg 89%
    16:00 +16°C° 0.3 mm 5 mps 745 mmHg 89%
    17:00 +16°C° 0.3 mm 5 mps 745 mmHg 89%
    18:00 +15°C° 2.6 mm 5 mps 745 mmHg 91%
    19:00 +15°C° 2.6 mm 5 mps 745 mmHg 93%
    20:00 +15°C° 2.6 mm 5 mps 745 mmHg 95%
    21:00 +14°C° 1.9 mm 5 mps 745 mmHg 95%
    22:00 +14°C° 1.9 mm 5 mps 745 mmHg 95%
    23:00 +14°C° 1.9 mm 4 mps 745 mmHg 95%
    Show more